Regional Weather Roundup
Issued by NWS

Home | Current Version | Previous Version | Text Only | Print | Product List | Glossary On
Versions: 1 2 3 4 5 6 7 8 9 10 11 12 13 14 15 16 17 18 19 20 21 22 23 24 25 26 27 28 29 30 31 32 33 34 35 36 37 38 39 40 41 42 43 44 45 46 47 48 49 50
000
ASUS44 KJAN 252220
RWRMS

MISSISSIPPI HOURLY WEATHER ROUNDUP
NATIONAL WEATHER SERVICE JACKSON MS
500 PM CDT SUN SEP 25 2016

NOTE: "FAIR: INDICATES FEW OR NO CLOUDS BELOW 12,000 FEET WITH NO
SIGNIFICANT WEATHER AND/OR OBSTRUCTIONS TO VISIBILITY.

MSZ001>002-007>008-010>013-018>021-025>028-034>036-252300-
NORTHWEST MISSISSIPPI

CITY           SKY/WX    TMP DP  RH WIND       PRES   REMARKS
BATESVILLE     FAIR      97  56  26 CALM      29.95F HX  95
CLARKSDALE     SUNNY     95  66  38 NE6       29.94F HX  98
CLEVELAND      FAIR      90  68  48 SW6       29.94F HX  94
GREENWOOD      SUNNY     94  70  45 CALM      29.93F HX 100
GREENVILLE     CLOUDY    84  71  65 CALM      29.95F
OLIVE BRANCH   MOSUNNY  N/A N/A N/A CALM      29.96F
OXFORD         FAIR      91  57  31 NW6       29.96F HX  90
TUNICA         CLEAR     91  64  40 N6        29.95F HX  93
WINONA         FAIR      90  63  40 SW5       29.94S HX  90
$$

MSZ003>006-009-014>017-022>024-029>033-037>039-252300-
NORTHEAST MISSISSIPPI

CITY           SKY/WX    TMP DP  RH WIND       PRES   REMARKS
COLUMBUS AFB   SUNNY     97  59  28 VRB7      29.92F HX  96
CORINTH        MOCLDY    95  55  26 CALM      29.95F HX  93
GOLDN TRIANGLE MOSUNNY   79  61  53 N7        29.96
STARKVILLE     FAIR      95  59  30 E3        29.95F HX  94
TUPELO         SUNNY     96  54  24 N6        29.94F HX  94
$$

MSZ040-058-252300-
CENTRAL MISSISSIPPI

CITY           SKY/WX    TMP DP  RH WIND       PRES   REMARKS
JACKSON INTL   PTSUNNY   84  68  58 W6        29.96F
JACKSON HAWKNS PTSUNNY   77  69  76 NW5       29.97F
MADISON        FAIR      82  64  54 NW6       29.96R
MERIDIAN KEY   CLOUDY    90  62  39 NE10      29.94F HX  90
MERIDIAN NAS   PTSUNNY   90  64  42 E5        29.95F HX  91
VICKSBURG VKS  PTCLDY    93  70  46 CALM      29.94F HX  99
$$

MSZ059>079-252300-
SOUTH MISSISSIPPI

CITY           SKY/WX    TMP DP  RH WIND       PRES   REMARKS
BROOKHAVEN     FAIR     N/A N/A N/A CALM      29.98S
COLUMBIA       FAIR      90  70  51 VRB3      29.97F HX  95
HATTIESBURG    CLOUDY    92  69  47 VRB3      29.95R THUNDER HX  97
LAUREL         MOCLDY    82  68  62 W9G16     29.95F
MCCOMB         SUNNY     89  66  46 S5        29.96F HX  91
NATCHEZ        MOSUNNY   90  70  51 SW7       29.96S HX  95
PINE BELT      CLOUDY    90  64  43 NE10      29.98R THUNDER HX  91
$$

MSZ080>082-252300-
COASTAL MISSISSIPPI

CITY           SKY/WX    TMP DP  RH WIND       PRES   REMARKS
BAY ST LOUIS   MOSUNNY  N/A N/A N/A SW3       29.95F
BILOXI         MOSUNNY   89  73  59 SW7       29.95S HX  96
PASCAGOULA     CLOUDY    83  74  74 CALM      29.96S
GULFPORT       MOSUNNY   90  70  51 S7        29.94F HX  95
$$

LAZ007>009-015>016-023>026-252300-
NORTHEAST LOUISIANA

CITY           SKY/WX    TMP DP  RH WIND       PRES   REMARKS
BASTROP        FAIR      93  66  41 W3        29.96S HX  96
TALLULAH/VBURG SUNNY     92  63  38 VRB3      29.94S HX  93
$$



USA.gov is the U.S. government's official web portal to all federal, state and local government web resources and services.